Showing default

ALOUETTE 1 (S-27), 424

Orbit data source: Space-Track

ALOUETTE 1 (S-27), 424 is a payload satellite owned by DRTE (CA) in LEO that was launched on Sat, 29 Sep 1962 UTC via a THOR AGENA B launch vehicle from the Air Force Western Test Range (AFWTR). Payload-class satellites include a variety of spacecraft equipped with specific instruments for various scientific and technological missions. These include communications satellites like Starlink; space stations such as the ISS; scientific satellites like the Hubble; Earth observation satellites from companies like Planet Labs, Umbra, and HawkEye 360; GPS; miniature CubeSats for education and research; and military/defense satellites.

Loading next visibility...
Identifier
424, 1962-049A
Orbit
LEO
Country
Flag of CACA
Related business
Manufacturer
DEHAVT/RCAV
Mission
Spacecraft
Bus & Motor
ALOUETTE, Unknown motor
Mass
145 kg wet, 145 kg dry
Launch date (UTC)
1962-09-29 (64 years ago)
Launch vehicle
THOR AGENA B
Launch site
Air Force Western Test Range (AFWTR)
Object type
Payload
Rocket body
Debris
Shape & HBR
Unknown
Radar Cross Section
Large (>1 m²)

Expand to show TLE details & history
Last TLE update: 11 hours ago

TLE from 11 hours ago
0 ALOUETTE 1 (S-27)
1   424U 62049A   26121.94466981  .00000099  00000-0  10280-3 0  9992
2   424  80.4647 302.1507 0022844 357.9914   2.1136 13.69583175174785
Epoch: 2026-05-01T22:40Z
TLE epoch observation values (Epoch: 2026-05-01T22:40:19.471Z)
Latitude
-0.00004°
Longitude
102.19991°
Altitude
987.037 km
Speed
7.367 km/s
True Right ascension
20h 08m 36s
True Declination
0° 00' 00"
Sunlit
Object was in daylight at epoch
Visualization orbit readout
Latitude
Unknown
Longitude
Unknown
Altitude
Unknown
Speed
Unknown
Apparent Right ascension
Unknown
Apparent Declination
Unknown
Sunlit
N/A
Visualization observer readout
Local Sidereal Time
16:57:26
Azimuth
Unknown
Elevation
Unknown
Doppler factor
Unknown
Orbital elements
Apogee altitude
1,015.185 km
Perigee altitude
981.484 km
Semi-major axis
7,376.472 km
Eccentricity
0.00228
Inclination
80.4647°
RAAN
302.1507°
Arg. of periapsis
357.9914°
True anomaly
2.12328°
Mean anomaly
2.1136°
Eccentric anomaly
2.11844°
Mean motion
3.42586 °/min
Orbital period
105.08 mins
BSTAR
0.0001028
Loading maneuver chart data...
Computing Atmospheric mass density...
Loading historical data...
Loading historical data...
Loading historical data...
Loading historical data...
Loading historical data...
Loading historical data...
Loading historical data...
Other satellites on launch #49 in the year 1962 (1962-09-29 UTC)

Documentation

Showing up to 5 results
|